Location: Wellington
(41.3000°S, 174.7830°E)
Time: 07:47:49
(UTC+12:00)

Cosmos 2181 Rocket - Visible Passes

Search period start: 18 June 2019 00:00
Search period end: 28 June 2019 00:00
Orbit: 952 x 1014 km, 82.9° (Epoch: 16 June)

Date Brightness Start Highest point End Pass type
(mag) Time Alt. Az. Time Alt. Az. Time Alt. Az.
18 Jun 5.7 05:15:39 10° SSE 05:21:12 31° ESE 05:26:45 10° NE visible
18 Jun 4.5 07:00:56 10° SSW 07:06:50 42° W 07:12:45 10° NNW visible
18 Jun 3.9 18:46:10 10° N 18:52:14 67° E 18:58:24 10° SSE visible
18 Jun 6.3 20:34:12 10° WNW 20:38:22 19° WSW 20:42:36 10° SSW visible
19 Jun 4.7 05:42:58 10° S 05:49:13 56° E 05:55:29 10° NNE visible
19 Jun 5.3 17:31:15 10° ENE 17:35:09 18° E 17:39:05 10° SE visible
19 Jun 4.3 19:13:53 10° NNW 19:19:59 67° W 19:26:12 10° S visible
20 Jun 6.5 04:26:54 10° SSE 04:30:44 16° ESE 04:34:35 10° ENE visible
20 Jun 4.0 06:10:39 10° S 06:17:02 80° W 06:23:26 10° N visible
20 Jun 4.6 17:57:05 10° NNE 18:02:29 34° E 18:07:58 10° SSE visible
20 Jun 5.4 19:42:23 10° NW 19:47:57 35° WSW 19:53:37 10° S visible
21 Jun 5.7 04:53:29 10° SSE 04:58:59 30° ESE 05:04:31 10° NE visible
21 Jun 4.4 06:38:42 10° SSW 06:44:39 43° W 06:50:38 10° NNW visible
21 Jun 3.9 18:23:59 10° N 18:30:02 65° E 18:36:12 10° SSE visible
21 Jun 6.3 20:11:52 10° WNW 20:16:08 19° WSW 20:20:28 10° SSW visible
22 Jun 4.7 05:20:46 10° S 05:27:02 55° E 05:33:17 10° NNE visible
22 Jun 5.1 07:07:16 10° SW 07:12:05 23° W 07:16:55 10° NW visible
22 Jun 4.3 18:51:40 10° NNW 18:57:47 69° W 19:04:00 10° S visible
23 Jun 6.5 04:04:45 10° SSE 04:08:31 16° ESE 04:12:17 10° ENE visible
23 Jun 4.0 05:48:26 10° S 05:54:51 82° W 06:01:17 10° N visible
23 Jun 4.6 17:34:56 10° NNE 17:40:18 33° E 17:45:45 10° SSE visible
23 Jun 5.4 19:20:07 10° NW 19:25:43 36° WSW 19:31:27 10° S visible
24 Jun 5.7 04:31:18 10° SSE 04:36:48 29° ESE 04:42:17 10° NE visible
24 Jun 4.3 06:16:29 10° SSW 06:22:29 44° W 06:28:30 10° NNW visible
24 Jun 4.0 18:01:48 10° N 18:07:50 63° E 18:14:00 10° SSE visible
24 Jun 6.3 19:49:33 10° WNW 19:53:54 20° WSW 19:58:20 10° SSW visible
25 Jun 4.7 04:58:34 10° S 05:04:50 54° ESE 05:11:06 10° NNE visible
25 Jun 5.0 06:45:01 10° SSW 06:49:56 24° W 06:54:51 10° NW visible
25 Jun 4.3 18:29:26 10° NNW 18:35:34 71° W 18:41:49 10° S visible
26 Jun 6.5 03:42:38 10° SSE 03:46:18 16° ESE 03:49:59 10° E visible
26 Jun 3.9 05:26:46 13° S 05:32:40 84° W 05:39:06 10° N visible
26 Jun 5.7 07:14:55 10° WSW 07:17:10 12° WSW 07:19:25 10° W visible
26 Jun 5.4 18:57:51 10° NW 19:03:30 37° WSW 19:09:17 10° S visible
27 Jun 5.7 04:10:55 17° SSE 04:14:36 29° ESE 04:20:03 10° NE visible
27 Jun 4.3 05:55:51 18° SSW 06:00:19 46° W 06:06:23 10° NNW visible
27 Jun 4.0 17:39:36 10° N 17:45:38 61° E 17:51:47 10° SSE visible
27 Jun 6.3 19:27:13 10° WNW 19:31:40 20° WSW 19:36:13 10° SSW visible
